Temp
87 93 89 86 71 72 68 72 79 76 77 84 85 82 81 85 81 73 87 91 90 89 89 83 79 79 79 78 78 77 77 77 77 78 78 79 78 78 78 77 77 77 77 76 76 76 77 76 76
89 91 87 78 66 63 67 77 74 78 82 85 85 84 82 82 91 88 89 89 90 91 90 88 78 79 78 78 77 77 77 77 77 77 78 78 78 78 77 78 77 76 75 75 75 74 75 75 75
91 91 78 72 66 59 65 74 76 79 84 83 82 87 87 84 90 91 91 90 90 90 90 85 78 79 78 78 77 77 77 77 77 77 77 77 77 78 78 78 77 75 75 75 74 74 74 74 74
87 86 82 67 65 70 69 74 77 77 83 85 84 81 89 90 90 90 91 91 91 91 91 79 78 78 78 78 77 77 77 77 77 76 76 77 77 77 77 76 75 75 74 74 74 74 74 74 74
88 81 68 65 67 71 78 80 78 74 78 80 82 80 84 88 90 90 90 91 91 91 91 85 78 78 78 77 77 77 77 77 77 77 76 77 77 77 77 76 75 75 74 74 75 75 74 74 74
74 78 64 62 68 73 77 81 79 79 80 81 80 79 82 90 90 88 89 90 91 90 88 86 77 77 77 77 77 77 77 77 76 76 77 77 75 76 76 76 75 75 74 74 74 75 75 75 74
70 69 64 66 68 70 75 81 78 78 78 80 84 77 87 88 88 87 89 91 89 90 88 88 85 80 75 76 76 76 76 76 76 76 76 75 73 74 75 75 75 74 74 74 74 74 74 74 74
75 71 63 67 65 66 77 77 80 78 77 87 86 79 81 87 89 87 87 87 88 87 87 88 87 86 83 82 75 75 75 75 75 75 74 72 73 73 74 74 74 73 73 74 73 73 73 74 73
78 64 60 64 66 70 78 74 81 83 79 82 86 85 88 89 89 86 84 83 85 84 86 87 87 87 87 87 81 75 74 73 73 73 71 73 79 81 79 73 72 71 72 72 73 73 73 72 71
69 62 64 73 75 73 77 75 77 76 77 79 83 89 90 90 89 86 85 86 84 84 84 86 86 86 86 86 85 83 84 82 83 83 82 83 83 83 79 72 70 71 71 71 72 72 72 71 75
69 62 72 74 77 76 74 74 79 74 71 78 79 84 88 87 87 87 87 88 88 87 87 85 85 86 86 85 85 86 85 84 84 83 83 83 82 82 81 81 80 79 71 76 77 77 77 79 78
65 71 72 74 76 73 71 76 74 75 76 83 84 85 86 84 86 87 88 88 88 86 85 86 86 84 85 85 83 85 84 84 84 83 83 82 82 81 80 80 80 79 79 78 78 79 79 79 79
64 70 74 75 75 74 75 71 72 74 81 85 86 85 84 84 86 88 88 87 87 85 85 85 85 84 83 83 84 84 84 83 84 82 83 82 80 80 80 80 80 80 80 79 79 79 79 80 80
68 70 71 74 73 74 70 72 74 76 82 83 83 82 84 84 83 83 85 84 85 85 83 85 85 85 84 83 82 83 84 84 83 83 82 81 80 79 78 78 79 78 79 78 77 76 76 77 78
68 62 68 70 73 72 74 66 68 78 82 79 80 82 81 79 79 80 80 80 81 83 81 81 82 84 84 83 82 83 83 82 82 81 81 80 80 79 78 78 77 74 75 77 77 78 77 77 77
60 59 52 66 71 73 70 58 73 81 78 77 78 79 77 75 76 77 77 79 80 81 80 79 79 81 82 83 82 83 82 82 80 81 81 79 79 78 77 75 74 77 78 77 76 75 75 74 75
52 49 51 59 72 70 68 62 74 80 77 76 79 80 77 75 75 75 76 78 79 80 80 79 80 81 81 82 82 81 80 80 80 79 78 78 77 78 77 75 75 77 75 75 74 73 73 71 72
47 49 55 55 66 68 65 64 72 77 77 75 78 78 76 74 73 74 76 78 79 80 80 80 80 80 80 80 80 79 78 77 77 76 76 76 76 75 74 74 74 74 73 72 71 70 71 70 70
56 54 56 61 68 67 63 64 70 75 76 75 76 76 75 73 73 74 76 78 78 79 79 79 79 80 80 79 76 74 72 73 73 73 74 74 73 73 71 71 71 70 69 69 69 68 66 66 68
53 54 57 60 66 64 64 64 71 73 74 76 76 75 74 71 72 72 74 76 77 77 77 77 77 78 78 76 75 74 73 72 72 71 71 72 71 70 70 68 68 68 67 66 65 64 62 64 65
54 52 55 56 64 64 63 59 64 71 74 73 76 77 74 72 70 71 73 73 74 73 73 73 73 74 74 74 74 73 73 72 70 69 69 68 69 68 67 66 66 65 65 63 63 62 61 58 62
46 57 61 58 57 51 63 52 65 69 66 68 72 73 72 71 72 71 71 71 71 70 72 73 73 74 75 75 74 72 69 66 67 68 68 68 67 65 65 65 64 64 64 61 61 63 61 59 56
49 58 61 58 57 53 54 53 62 70 65 66 70 71 71 71 70 69 69 69 70 70 69 71 71 71 72 72 72 70 68 67 67 68 67 67 67 65 63 63 62 61 61 60 59 59 59 59 58
56 56 56 58 56 45 56 55 59 63 67 69 70 70 69 69 69 69 69 68 67 67 68 68 68 68 69 69 69 67 66 66 65 64 64 65 65 64 61 61 61 60 59 58 57 58 57 57 57
53 47 41 40 42 45 60 56 61 67 69 72 68 68 69 69 68 67 66 66 66 65 66 67 67 65 67 66 66 65 64 64 62 63 62 62 62 60 58 58 58 58 58 57 57 56 56 57 55
47 50 48 38 41 48 56 49 61 70 73 74 72 70 69 68 68 66 67 67 66 66 66 66 65 64 65 64 63 64 63 62 62 61 60 60 59 59 58 57 57 57 57 57 56 55 56 56 54
44 47 59 53 55 52 53 60 66 69 67 69 70 69 67 68 68 67 68 67 66 65 66 65 64 62 63 62 63 62 62 60 59 59 59 58 58 58 57 57 56 56 56 56 55 54 54 54 53
51 61 49 54 42 42 51 55 57 63 65 66 68 68 68 68 68 67 67 67 67 65 64 64 64 62 61 62 61 60 59 59 58 58 56 56 56 56 55 55 55 54 55 55 54 53 54 52 52
45 49 55 59 55 48 46 53 68 66 67 66 68 70 68 68 67 67 67 67 65 64 62 62 61 60 59 60 60 58 57 57 57 56 55 55 55 54 53 53 53 53 53 53 52 52 52 51 50
55 52 58 52 46 53 52 53 70 69 68 68 69 70 70 69 68 68 67 65 62 61 61 60 60 59 58 58 58 56 55 55 55 54 54 54 53 53 53 52 52 52 52 51 50 49 50 49 48
MSLP
1010.77 1010.02 1009.75 1008.79 1008.19 1006.84 1005.28 1004.63 1004.85 1004.65 1004.49 1004.75 1004.68 1004.43 1004.05 1003.73 1003.31 1004.67 1006.28 1006.42 1006.86 1007.30 1007.80 1008.92 1009.42 1009.63 1009.97 1010.28 1010.56 1010.84 1010.97 1011.15 1011.35 1011.51 1011.67 1011.74 1011.89 1011.90 1012.05 1012.20 1012.25 1012.36 1012.28 1012.43 1012.29 1012.20 1012.03 1012.04 1012.08
1010.75 1009.89 1009.42 1008.78 1007.81 1006.18 1005.08 1004.77 1005.00 1004.90 1005.21 1005.07 1004.50 1004.27 1004.04 1003.27 1003.81 1004.84 1005.57 1006.73 1007.02 1007.34 1007.78 1008.30 1009.50 1009.79 1010.10 1010.48 1010.76 1010.95 1011.10 1011.23 1011.36 1011.54 1011.58 1011.71 1011.85 1011.89 1012.04 1012.18 1012.27 1012.50 1012.63 1012.58 1012.51 1012.42 1012.24 1012.28 1012.23
1010.39 1009.89 1009.08 1008.13 1007.70 1006.73 1005.67 1005.51 1005.63 1005.99 1005.49 1005.09 1004.56 1004.17 1003.83 1003.75 1004.51 1004.93 1006.21 1006.90 1007.16 1007.45 1007.74 1008.49 1009.45 1009.86 1010.21 1010.57 1010.93 1011.07 1011.19 1011.36 1011.44 1011.54 1011.69 1011.84 1011.87 1011.82 1011.97 1012.01 1012.18 1012.51 1012.66 1012.65 1012.60 1012.54 1012.46 1012.41 1012.28
1010.21 1008.97 1008.91 1008.15 1006.81 1006.69 1006.71 1006.59 1006.57 1006.34 1005.54 1005.32 1005.00 1004.23 1004.19 1005.13 1005.08 1005.98 1006.57 1006.92 1007.01 1007.38 1007.72 1009.06 1009.57 1010.02 1010.41 1010.66 1010.95 1011.17 1011.27 1011.39 1011.48 1011.58 1011.69 1011.81 1011.83 1011.82 1011.87 1012.01 1012.26 1012.48 1012.62 1012.64 1012.56 1012.50 1012.42 1012.31 1012.23
1009.93 1009.34 1008.45 1007.41 1006.97 1006.94 1006.59 1006.41 1006.72 1006.38 1005.97 1005.68 1005.37 1004.38 1004.34 1005.47 1006.02 1006.35 1006.68 1007.00 1006.97 1007.32 1007.67 1008.90 1009.68 1010.10 1010.41 1010.72 1011.04 1011.21 1011.28 1011.33 1011.47 1011.55 1011.66 1011.62 1011.80 1011.68 1011.73 1011.98 1012.10 1012.29 1012.49 1012.49 1012.40 1012.36 1012.26 1012.18 1012.07
1009.90 1009.18 1008.11 1007.10 1006.50 1006.64 1006.60 1006.35 1006.69 1006.21 1005.84 1005.50 1005.40 1005.27 1005.00 1005.70 1005.95 1006.68 1006.95 1007.09 1007.26 1007.53 1007.96 1008.67 1009.64 1010.09 1010.31 1010.61 1010.84 1011.07 1011.13 1011.27 1011.42 1011.50 1011.62 1011.65 1011.83 1011.68 1011.65 1011.86 1012.09 1012.07 1012.27 1012.26 1012.29 1012.19 1012.09 1011.98 1011.86
1009.86 1009.01 1008.24 1007.34 1006.64 1006.53 1006.51 1006.66 1006.59 1006.27 1006.10 1005.33 1005.77 1005.11 1004.55 1005.62 1006.54 1006.89 1006.96 1007.10 1007.57 1007.67 1008.03 1008.29 1009.05 1009.79 1010.31 1010.51 1010.80 1011.00 1011.07 1011.11 1011.39 1011.50 1011.65 1011.68 1011.88 1011.94 1011.91 1011.99 1012.12 1012.12 1012.16 1012.19 1012.13 1012.05 1011.91 1011.81 1011.68
1009.89 1009.41 1008.48 1007.43 1007.04 1006.67 1006.48 1006.83 1006.79 1006.79 1006.06 1005.80 1005.66 1004.71 1004.55 1005.61 1006.62 1006.98 1007.21 1007.38 1007.59 1007.85 1007.99 1008.17 1008.35 1008.93 1009.44 1009.78 1010.45 1010.81 1011.05 1011.13 1011.28 1011.57 1011.67 1011.74 1011.79 1011.76 1011.76 1011.85 1011.94 1012.02 1012.04 1012.01 1011.91 1011.93 1011.76 1011.64 1011.42
1010.31 1009.40 1007.98 1007.40 1006.99 1006.74 1006.73 1006.87 1006.65 1006.91 1006.48 1006.05 1005.49 1005.27 1005.18 1006.00 1006.42 1006.64 1007.05 1007.39 1007.56 1007.87 1007.99 1008.08 1008.18 1008.31 1008.59 1008.89 1009.65 1010.52 1010.80 1011.14 1011.26 1011.50 1011.53 1011.51 1011.19 1010.90 1011.16 1011.36 1011.63 1011.83 1011.88 1011.84 1011.78 1011.63 1011.52 1011.36 1011.22
1009.86 1008.80 1007.81 1007.32 1006.76 1006.73 1006.76 1006.99 1006.83 1006.79 1006.08 1005.44 1005.05 1004.81 1005.28 1005.62 1005.86 1005.97 1006.19 1006.28 1006.82 1007.33 1007.74 1007.93 1008.10 1008.25 1008.53 1008.87 1009.30 1009.75 1009.62 1010.29 1010.22 1010.50 1010.58 1010.54 1010.54 1010.65 1011.09 1011.32 1011.45 1011.51 1011.50 1011.48 1011.36 1011.17 1010.99 1010.98 1010.48
1009.16 1008.12 1007.66 1007.19 1007.03 1007.25 1007.22 1007.02 1006.88 1006.54 1005.94 1005.50 1004.96 1004.84 1004.97 1005.35 1005.69 1005.57 1005.65 1005.72 1005.98 1006.65 1007.04 1007.70 1007.96 1008.16 1008.44 1008.72 1008.98 1009.11 1009.42 1009.71 1009.80 1010.15 1010.35 1010.44 1010.68 1010.62 1010.65 1010.61 1010.65 1010.68 1010.89 1010.73 1010.39 1010.23 1010.25 1009.89 1009.84
1008.51 1008.16 1007.83 1007.16 1007.15 1007.62 1007.36 1007.12 1006.57 1006.37 1005.80 1005.50 1005.36 1005.18 1005.17 1005.41 1005.27 1005.23 1005.23 1005.45 1005.73 1006.40 1006.95 1007.36 1007.76 1008.07 1008.28 1008.40 1009.03 1008.87 1009.23 1009.44 1009.62 1009.85 1010.22 1010.35 1010.36 1010.57 1010.52 1010.44 1010.42 1010.34 1010.24 1010.17 1010.03 1009.84 1009.61 1009.44 1009.22
1008.22 1007.83 1007.46 1007.40 1007.17 1007.23 1007.27 1006.86 1006.53 1006.05 1005.66 1005.19 1004.84 1004.69 1004.86 1005.15 1005.16 1005.26 1005.36 1005.66 1005.78 1006.23 1006.80 1007.26 1007.54 1007.89 1008.21 1008.51 1008.72 1009.00 1009.09 1009.45 1009.51 1009.87 1010.13 1010.35 1010.45 1010.45 1010.50 1010.43 1010.23 1010.14 1010.02 1010.01 1009.87 1009.63 1009.24 1009.05 1008.76
1008.43 1007.88 1007.47 1007.02 1007.03 1006.94 1006.87 1006.44 1006.25 1005.41 1005.16 1004.52 1004.43 1004.56 1004.61 1004.77 1005.41 1005.78 1005.64 1005.73 1005.94 1006.23 1006.83 1007.01 1007.34 1007.70 1008.02 1008.36 1008.75 1008.99 1009.15 1009.15 1009.55 1009.78 1010.13 1010.43 1010.54 1010.63 1010.59 1010.50 1010.23 1010.14 1009.99 1009.85 1009.80 1009.66 1009.37 1009.08 1008.74
1008.47 1007.83 1007.40 1006.70 1006.56 1006.31 1006.49 1005.79 1005.12 1004.91 1004.51 1004.47 1004.34 1004.25 1004.69 1005.49 1005.97 1005.96 1006.33 1006.41 1006.56 1006.75 1007.13 1007.17 1007.36 1007.56 1007.85 1008.27 1008.73 1008.97 1009.26 1009.68 1009.81 1009.89 1010.15 1010.48 1010.53 1010.58 1010.68 1010.53 1010.48 1010.54 1010.28 1010.03 1009.82 1009.65 1009.43 1009.08 1008.68
1008.54 1008.33 1007.22 1006.51 1006.33 1005.96 1006.38 1004.76 1004.32 1003.81 1004.25 1004.05 1004.20 1004.45 1005.10 1005.88 1006.14 1006.52 1006.92 1006.83 1006.90 1006.95 1007.07 1007.40 1007.65 1007.72 1007.85 1008.21 1008.78 1008.99 1009.32 1009.66 1010.08 1010.17 1010.23 1010.65 1010.76 1010.88 1010.70 1010.82 1010.82 1010.60 1010.37 1010.22 1010.17 1009.83 1009.42 1009.16 1008.79
1008.71 1007.45 1006.84 1006.12 1005.34 1005.46 1005.33 1004.43 1003.92 1003.74 1004.08 1003.76 1003.74 1003.96 1005.01 1005.88 1006.40 1006.96 1007.20 1007.05 1007.04 1007.06 1007.13 1007.34 1007.43 1007.62 1008.02 1008.47 1008.93 1009.48 1009.86 1009.99 1010.28 1010.49 1010.77 1011.22 1011.26 1011.20 1011.09 1011.32 1011.34 1011.00 1010.92 1010.71 1010.61 1010.31 1009.99 1009.50 1008.96
1008.00 1007.14 1006.15 1005.62 1004.82 1004.90 1004.71 1004.36 1004.01 1003.47 1003.40 1003.59 1003.43 1003.98 1005.05 1005.88 1006.78 1007.23 1007.27 1007.25 1007.22 1007.17 1007.29 1007.45 1007.64 1007.95 1008.40 1008.85 1009.34 1009.82 1010.32 1010.79 1011.18 1011.40 1011.81 1011.94 1012.03 1012.07 1011.92 1011.78 1011.77 1011.62 1011.37 1011.26 1011.15 1010.84 1010.47 1010.06 1009.32
1007.74 1006.89 1005.76 1004.87 1004.35 1004.15 1004.28 1003.93 1003.22 1003.09 1003.09 1003.15 1003.48 1004.12 1005.09 1006.18 1007.14 1007.48 1007.35 1007.44 1007.49 1007.53 1007.55 1007.72 1007.93 1008.19 1008.45 1008.79 1009.40 1010.12 1010.77 1011.27 1011.65 1011.97 1012.29 1012.52 1012.68 1012.64 1012.59 1012.47 1012.37 1012.32 1012.06 1011.83 1011.64 1011.27 1010.96 1010.37 1009.86
1007.17 1006.08 1004.77 1004.46 1004.29 1004.63 1003.98 1003.30 1002.64 1002.54 1002.56 1002.52 1003.10 1004.01 1005.13 1006.35 1007.02 1007.51 1007.69 1007.72 1007.89 1007.99 1008.22 1008.48 1008.64 1008.83 1009.17 1009.63 1010.11 1010.69 1011.24 1011.76 1012.21 1012.59 1012.95 1013.02 1013.20 1013.25 1013.14 1013.19 1012.97 1012.86 1012.59 1012.36 1012.24 1011.91 1011.49 1011.00 1010.56
1006.79 1005.66 1004.80 1004.19 1004.29 1004.64 1004.06 1002.94 1002.18 1002.08 1002.23 1002.68 1002.99 1003.92 1005.22 1006.17 1006.99 1007.53 1007.87 1008.22 1008.42 1008.65 1008.95 1009.23 1009.45 1009.68 1010.16 1010.54 1010.85 1011.21 1011.65 1011.96 1012.40 1012.98 1013.32 1013.58 1013.61 1013.78 1013.80 1013.71 1013.58 1013.38 1013.10 1012.95 1012.78 1012.49 1012.21 1011.69 1011.10
1006.69 1005.49 1003.94 1004.04 1003.93 1003.64 1003.58 1001.37 1000.14 1000.76 1002.04 1002.67 1003.06 1003.91 1005.21 1006.25 1007.10 1007.68 1008.06 1008.50 1008.90 1009.30 1009.50 1009.68 1009.92 1010.24 1010.57 1010.65 1010.79 1011.22 1011.81 1012.38 1012.91 1013.20 1013.59 1013.75 1014.09 1014.25 1014.31 1014.20 1014.05 1013.84 1013.61 1013.51 1013.34 1013.04 1012.74 1012.25 1011.56
1006.33 1004.46 1003.84 1004.31 1003.90 1003.98 1003.36 1002.23 1000.20 1000.04 1000.94 1001.95 1002.74 1003.88 1005.26 1006.42 1007.26 1007.89 1008.36 1008.91 1009.35 1009.79 1010.10 1010.33 1010.65 1011.05 1011.28 1011.32 1011.49 1011.83 1012.29 1012.78 1013.27 1013.48 1013.68 1013.86 1014.08 1014.34 1014.68 1014.54 1014.41 1014.27 1014.17 1014.06 1013.88 1013.52 1013.13 1012.70 1012.17
1005.44 1004.79 1004.64 1004.40 1003.93 1003.35 1002.08 1001.45 999.45 999.33 1000.01 1000.83 1002.54 1003.90 1005.35 1006.45 1007.38 1008.20 1008.85 1009.32 1009.84 1010.34 1010.65 1010.97 1011.24 1011.54 1011.85 1012.09 1012.32 1012.56 1012.91 1013.20 1013.51 1013.79 1013.91 1013.97 1014.10 1014.48 1014.89 1014.88 1014.77 1014.67 1014.61 1014.42 1014.19 1013.86 1013.44 1012.96 1012.45
1004.96 1004.98 1004.03 1003.43 1003.29 1001.94 1001.01 1000.54 999.33 999.62 1000.02 1000.36 1002.06 1003.66 1005.18 1006.42 1007.32 1008.22 1008.81 1009.39 1010.02 1010.52 1010.90 1011.35 1011.75 1012.08 1012.45 1012.71 1012.94 1013.29 1013.62 1013.81 1014.06 1014.09 1014.29 1014.36 1014.44 1014.72 1015.06 1015.17 1015.09 1014.97 1014.87 1014.69 1014.40 1014.01 1013.50 1012.98 1012.55
1004.77 1003.93 1001.44 1000.82 1000.98 1000.84 1001.51 1000.19 999.03 999.56 999.96 1000.56 1001.88 1003.36 1004.90 1006.17 1007.14 1008.11 1008.70 1009.34 1010.06 1010.59 1011.10 1011.62 1012.15 1012.61 1013.02 1013.29 1013.56 1013.89 1014.15 1014.33 1014.49 1014.76 1014.89 1014.92 1015.00 1015.20 1015.43 1015.46 1015.38 1015.20 1015.03 1014.77 1014.43 1014.06 1013.37 1012.88 1012.51
1005.24 1003.23 1000.99 999.91 999.90 999.63 1000.04 999.56 999.60 999.77 1000.34 1000.88 1001.74 1003.11 1004.45 1005.67 1006.81 1007.80 1008.65 1009.37 1010.09 1010.71 1011.30 1011.97 1012.50 1013.05 1013.47 1013.80 1014.10 1014.42 1014.64 1014.82 1015.06 1015.20 1015.32 1015.46 1015.52 1015.57 1015.64 1015.62 1015.50 1015.29 1015.05 1014.75 1014.35 1013.86 1013.27 1012.78 1012.35
1003.94 1001.77 1001.05 999.96 999.62 999.10 999.02 998.51 998.12 999.37 999.95 1000.84 1001.52 1002.69 1004.05 1005.35 1006.54 1007.66 1008.54 1009.32 1010.12 1010.90 1011.67 1012.27 1012.78 1013.34 1013.84 1014.22 1014.57 1014.87 1015.15 1015.36 1015.44 1015.57 1015.71 1015.83 1015.83 1015.76 1015.77 1015.68 1015.52 1015.25 1014.94 1014.62 1014.25 1013.66 1013.08 1012.65 1012.13
1003.66 1002.04 1000.79 999.63 999.35 998.62 998.31 998.37 998.40 999.30 999.84 1000.44 1001.24 1002.18 1003.53 1004.91 1006.25 1007.42 1008.37 1009.41 1010.35 1011.24 1011.92 1012.49 1013.16 1013.77 1014.26 1014.61 1014.92 1015.19 1015.51 1015.69 1015.75 1015.86 1016.07 1016.08 1016.02 1015.94 1015.89 1015.75 1015.53 1015.19 1014.86 1014.55 1014.06 1013.50 1012.93 1012.37 1011.88
1002.50 1001.86 1000.57 999.53 999.96 999.41 998.87 998.81 999.06 999.66 1000.05 1000.47 1000.93 1001.95 1003.26 1004.75 1006.01 1007.18 1008.22 1009.49 1010.49 1011.30 1012.03 1012.71 1013.42 1013.99 1014.51 1014.93 1015.25 1015.57 1015.80 1015.93 1016.00 1016.15 1016.30 1016.28 1016.20 1016.10 1015.96 1015.81 1015.54 1015.14 1014.79 1014.40 1013.93 1013.30 1012.77 1012.19 1011.55
Wind_Speed
15 11 7 6 6 6 10 6 4 4 3 5 10 8 10 10 9 6 4 6 5 8 12 13 9 11 9 11 10 8 8 6 4 2 1 1 1 3 5 3 4 5 5 6 7 9 9 9 9
12 12 4 3 6 8 10 5 10 2 9 12 8 6 6 4 6 9 7 7 4 8 9 11 10 10 9 12 10 7 6 5 3 1 1 3 3 3 4 1 3 2 3 5 7 9 8 9 9
15 8 7 4 3 9 7 3 7 10 11 6 6 2 6 7 8 5 6 8 6 8 7 12 12 9 12 10 8 6 5 4 2 2 4 5 4 5 4 3 4 2 3 4 5 5 6 7 8
6 5 5 8 10 4 8 8 7 9 8 4 8 10 4 8 5 7 6 7 7 8 8 13 11 9 9 8 8 6 5 3 2 1 4 5 7 6 6 7 7 4 1 4 5 5 5 6 7
7 6 9 10 10 5 7 7 5 8 8 10 7 5 5 7 5 3 5 4 5 7 8 11 10 8 7 7 7 6 5 3 2 1 3 5 10 7 7 6 8 5 1 3 5 6 7 7 7
6 5 11 11 12 5 7 6 7 9 7 9 5 9 3 8 8 5 3 4 3 7 7 12 10 7 8 8 9 8 6 6 3 1 4 5 8 9 3 4 6 3 3 4 5 8 10 10 8
11 11 15 16 13 9 9 1 9 7 11 6 8 7 7 12 9 2 3 3 4 7 8 8 11 9 8 6 5 6 8 6 2 1 2 3 3 4 6 4 0 2 5 5 6 9 10 10 10
8 11 19 16 12 16 4 3 5 10 11 9 4 5 1 12 8 3 2 3 6 6 8 8 9 11 10 9 10 6 4 5 4 3 1 1 4 6 4 2 3 3 7 9 9 11 11 13 12
9 11 14 19 16 11 3 9 6 5 13 12 11 10 4 5 2 1 2 5 6 6 8 8 9 8 7 6 11 9 7 4 4 6 8 6 6 6 5 5 3 5 9 10 11 12 13 12 12
13 13 21 16 12 11 11 7 10 10 13 13 12 10 7 6 7 7 5 6 9 10 10 9 8 8 7 5 7 7 8 7 8 7 6 4 2 1 3 5 6 8 11 10 14 14 14 11 9
18 20 17 17 11 12 13 12 15 11 15 14 10 11 12 11 11 8 6 5 7 9 8 9 8 8 8 6 5 4 3 4 4 5 4 3 2 3 3 2 3 4 4 6 5 7 7 7 7
24 21 22 19 11 11 14 14 16 16 17 16 15 17 15 12 10 8 8 6 5 7 7 8 9 8 8 5 5 4 4 4 3 4 3 3 2 2 3 3 3 3 3 6 6 5 8 9 10
24 24 20 20 15 13 14 17 17 20 19 18 17 13 15 13 11 9 6 4 3 6 7 7 8 9 7 7 5 4 4 4 4 3 2 2 3 3 4 4 4 4 5 6 6 7 8 10 11
13 25 23 16 20 18 15 18 17 17 18 16 13 14 12 11 8 8 6 3 3 2 3 5 8 9 9 7 6 4 3 3 3 1 1 3 3 4 4 5 5 5 6 6 7 6 8 9 10
22 17 21 23 18 19 14 20 22 19 19 12 12 9 4 6 6 4 2 2 2 3 1 2 4 7 8 8 6 4 3 1 1 2 2 3 3 4 5 5 5 5 5 7 7 8 9 8 9
23 19 16 19 23 20 13 18 14 4 6 5 3 2 3 2 2 1 1 1 3 3 5 4 4 6 8 7 6 4 4 3 3 3 3 6 7 6 4 5 5 7 7 6 7 7 8 8 8
15 17 25 20 22 19 20 15 18 8 9 11 12 6 3 4 4 3 3 4 4 5 6 7 6 8 8 8 6 7 6 5 5 7 8 9 10 9 8 7 7 9 6 7 7 8 9 8 9
18 24 19 24 19 15 18 20 18 14 8 10 9 5 6 5 5 5 6 7 8 8 9 10 9 11 11 8 8 7 8 9 8 9 9 10 9 10 8 7 8 8 7 7 8 10 9 9 9
21 20 24 17 21 19 16 19 18 16 13 10 8 8 8 8 7 7 8 10 10 11 11 12 11 11 8 8 8 8 8 8 8 9 11 10 10 10 10 7 8 8 8 9 10 9 11 8 9
19 20 26 11 17 10 14 18 18 14 17 13 13 11 11 11 10 10 10 10 12 13 13 13 12 11 10 8 8 8 8 8 8 7 8 9 10 11 9 10 8 9 7 9 10 10 8 7 9
28 22 21 14 13 11 11 18 19 21 10 7 11 12 13 13 13 13 12 12 12 13 13 13 12 12 11 12 9 8 8 6 7 7 6 8 10 11 10 9 8 8 7 7 8 9 10 8 8
26 20 16 12 12 9 14 6 11 14 13 10 13 14 14 14 13 13 13 13 12 12 11 13 13 12 10 10 9 11 8 8 6 6 6 6 8 9 9 9 9 8 6 8 7 8 8 8 8
18 27 17 15 9 3 13 7 15 15 16 11 15 16 15 14 14 14 13 12 12 11 10 11 13 12 11 10 10 8 9 7 5 4 6 6 6 7 9 9 8 8 6 8 9 9 9 7 8
3 11 10 12 6 8 13 12 10 13 13 17 15 17 17 16 15 13 12 12 11 10 10 10 12 12 11 10 11 10 9 7 6 6 5 4 5 5 8 9 8 8 8 8 7 8 9 8 8
18 17 7 6 8 7 6 10 13 8 5 8 17 19 19 17 16 14 14 12 11 11 11 10 10 11 10 10 10 9 8 7 7 6 5 6 5 5 8 8 8 7 7 8 8 8 9 9 8
19 21 9 9 11 12 7 7 5 8 2 10 17 19 19 17 15 14 13 12 12 11 10 10 10 9 8 8 8 7 7 5 5 6 5 5 5 5 7 7 8 8 9 9 9 7 7 9 8
11 24 2 6 7 9 9 9 8 6 7 9 17 20 20 18 16 15 13 12 11 11 10 10 9 8 7 7 6 6 6 7 5 6 5 5 5 5 6 7 8 8 9 10 10 8 10 9 10
8 9 6 3 8 6 8 6 6 10 9 12 15 20 19 18 16 14 13 12 11 10 9 9 8 8 7 6 5 5 5 5 5 5 5 5 5 5 6 7 8 10 10 11 11 9 10 11 9
3 8 5 4 2 3 7 5 11 7 4 9 13 18 20 19 17 15 13 12 11 10 9 9 8 7 6 5 5 5 5 5 4 4 4 5 5 6 7 8 10 11 12 12 12 12 13 12 13
14 10 14 6 6 5 5 7 7 7 6 5 11 15 18 17 16 15 14 12 11 10 9 8 7 6 5 4 4 4 4 4 4 4 5 5 6 7 8 9 10 12 13 13 14 13 13 13 15
Wind_Direction
310 323 315 256 258 241 236 209 354 204 195 0 307 290 326 305 347 25 124 101 91 126 135 163 172 164 161 158 147 151 139 141 138 165 117 235 278 41 30 46 46 41 4 8 358 354 5 12 359
310 317 242 295 268 238 227 182 212 31 336 317 291 252 245 63 57 103 146 103 101 125 140 162 162 169 151 148 152 158 155 141 150 222 43 298 252 238 162 133 65 49 25 351 356 349 344 345 347
291 282 279 287 224 274 337 147 12 324 303 320 291 258 319 51 60 64 76 118 131 130 142 111 152 159 153 152 158 159 155 158 154 272 307 323 323 246 222 206 144 95 31 349 352 356 342 321 327
312 237 224 242 262 250 267 302 333 312 315 327 316 279 134 46 21 35 101 135 151 138 143 116 133 148 162 167 161 157 159 167 207 276 294 298 304 276 198 143 138 144 85 355 338 334 319 319 321
251 264 254 244 258 255 263 275 275 303 298 308 339 296 340 61 52 60 123 150 146 140 129 139 139 152 161 156 161 182 183 181 193 259 277 307 347 289 218 196 160 152 197 304 314 306 298 298 302
263 258 259 251 242 194 262 289 267 268 298 296 279 323 67 65 35 65 118 151 145 138 138 134 146 160 176 194 191 192 196 203 180 216 289 306 9 24 346 198 187 183 224 255 313 322 309 309 291
248 261 257 262 275 263 270 339 265 309 284 273 330 276 113 69 46 60 130 148 172 148 159 152 166 179 178 218 225 212 209 213 241 154 288 334 22 20 44 69 7 355 306 309 294 300 304 299 301
268 251 258 253 257 257 225 262 274 279 289 337 275 264 120 35 31 62 126 191 182 175 173 171 172 169 182 193 189 219 237 192 196 234 238 24 268 247 215 248 211 312 302 298 294 289 292 289 293
235 244 242 244 241 253 206 257 276 284 271 275 276 274 335 9 334 29 201 202 216 197 197 193 181 178 188 197 163 182 213 214 188 223 213 223 234 208 183 90 355 312 291 286 287 283 280 284 283
222 226 240 249 262 247 274 251 288 287 279 274 276 242 249 261 300 292 273 243 199 205 204 200 200 186 191 180 181 200 190 207 204 204 194 229 252 298 315 303 250 254 258 264 263 260 258 262 258
220 240 242 247 252 267 272 275 272 277 273 273 283 297 301 312 288 274 255 263 241 210 193 202 199 200 195 195 201 203 199 199 203 222 227 225 247 250 242 279 245 265 203 248 257 256 238 284 288
228 235 242 259 236 237 254 271 278 269 274 288 282 281 287 281 268 274 289 292 212 205 199 194 205 202 206 198 194 210 193 191 210 182 222 241 246 245 279 300 310 286 287 299 290 290 289 279 274
234 234 237 244 243 239 258 262 267 272 277 274 273 273 269 261 268 278 287 286 250 201 196 213 208 206 207 206 197 209 207 180 199 188 231 274 274 300 316 304 303 304 310 295 304 303 305 302 304
227 237 242 222 237 241 250 262 266 266 272 282 291 279 262 252 276 285 251 279 242 162 221 223 214 213 198 197 196 195 202 195 185 190 265 314 299 305 310 305 318 322 330 331 318 317 309 306 307
229 233 228 242 231 246 245 263 258 263 265 286 267 263 288 263 260 258 313 262 339 74 327 238 237 218 200 183 180 180 162 322 84 65 27 316 317 331 330 331 339 355 330 322 324 324 328 323 322
227 243 240 221 231 236 230 257 259 169 202 253 232 230 225 213 238 147 178 154 94 76 61 46 144 192 179 168 162 157 101 93 77 63 54 27 26 14 353 7 15 353 356 349 351 341 336 327 309
226 230 218 232 220 218 209 256 240 222 227 266 259 213 207 148 118 92 110 101 92 76 76 85 101 118 140 134 114 91 102 83 69 58 60 52 46 37 42 32 20 3 3 355 350 343 339 330 318
221 213 210 224 217 215 229 237 253 218 251 265 257 186 185 155 110 95 99 95 92 92 95 91 95 104 113 117 113 98 79 72 69 64 58 48 47 37 26 24 16 0 358 358 349 342 343 330 328
218 201 215 217 222 219 226 241 238 233 246 233 234 195 171 143 118 104 101 101 98 89 87 88 99 112 118 117 107 105 103 94 80 68 58 49 40 32 28 15 11 5 357 356 350 347 340 333 344
225 216 211 200 158 204 229 236 241 235 243 239 214 199 172 151 135 119 115 103 94 94 92 88 86 87 88 94 91 95 92 85 83 75 59 52 43 33 27 15 5 5 351 2 356 357 345 342 338
225 214 230 190 184 214 253 261 252 243 243 218 230 187 165 163 146 137 124 113 103 95 94 93 91 96 99 106 109 106 107 94 80 63 62 44 42 31 23 17 5 6 359 6 357 358 349 340 338
221 222 214 163 191 214 193 279 193 169 188 189 189 177 170 157 148 136 131 119 107 100 94 95 92 93 90 84 81 79 87 87 73 67 52 55 43 36 19 14 10 10 2 7 351 356 342 341 335
227 202 177 187 192 264 213 242 254 182 192 193 193 175 167 163 155 145 133 123 112 107 101 99 96 90 85 83 92 97 99 95 79 67 53 49 47 40 24 14 12 11 7 2 349 342 338 331 331
197 181 143 173 186 225 234 209 255 187 208 189 184 176 169 166 159 147 137 131 120 115 107 103 102 95 89 88 87 89 89 82 80 62 45 29 40 31 32 10 9 5 360 350 337 330 321 319 320
163 190 153 159 190 218 175 205 248 110 128 170 178 174 172 166 162 157 153 145 136 126 117 112 105 99 95 92 90 87 83 77 70 53 41 25 19 21 18 6 357 352 344 333 326 323 311 317 319
171 199 160 167 185 187 144 221 210 91 117 169 176 173 170 172 167 167 160 150 139 130 122 119 114 108 101 95 89 81 73 66 60 48 30 25 17 13 0 353 342 335 328 326 322 314 308 308 313
205 223 50 108 36 145 164 223 157 165 154 174 173 173 176 175 172 170 161 155 143 136 131 125 122 113 104 98 91 80 74 65 58 45 33 15 10 355 350 337 328 324 321 321 319 311 307 309 304
235 185 167 225 154 179 155 188 126 167 153 177 188 181 178 176 171 169 168 157 149 137 131 131 128 121 113 102 89 82 72 59 49 42 25 6 352 350 334 328 325 321 319 318 313 305 305 304 299
213 198 224 225 336 221 159 163 84 94 118 168 193 183 180 177 173 172 170 157 148 145 146 136 133 135 125 110 103 88 70 52 42 29 2 353 335 340 326 327 322 318 315 311 309 306 303 301 301
169 213 220 207 148 269 337 109 130 92 100 163 172 180 178 174 177 172 167 159 161 161 152 150 147 145 129 118 106 86 70 42 26 9 350 339 334 331 327 320 315 309 306 308 306 305 301 307 304